Broken Bow, NE

4:59 PM CST on January 22, 2018 (GMT -0600)
Broken Bow Municipal

Weather History for KBBW - February, 2013

Change the Weather History Date:

Sunday, February 3, 2013

  Actual Average Record
Temperature  
Mean Temperature 34 °F 26 °F  
Max Temperature 52 °F 38 °F 74 °F (1962)
Min Temperature 16 °F 13 °F -27 °F (1996)
Degree Days  
Heating Degree Days 31 39  
Month to date heating degree days 93 117  
Cooling Degree Days 0 0  
Month to date cooling degree days 0 0  
Year to date cooling degree days 0 0  
Moisture  
Dew Point 21 °F    
Average Humidity 60    
Maximum Humidity 92    
Minimum Humidity 28    
Precipitation  
Precipitation 0.00 in 0.02 in 0.38 in (1960)
Sea Level Pressure  
Sea Level Pressure 30.04 in    
Wind  
Wind Speed 8 mph (WSW)    
Max Wind Speed 24 mph    
Max Gust Speed 31 mph    
Visibility 10 miles    
Events      
T = Trace of Precipitation, MM = Missing Value Source: NWS Daily Summary

Daily Weather History Graph

Daily Weather History Graph

Search for Another Location

Airport or City:

Trip Planner

Search our weather history database for the weather conditions in past years. The results will help you decide how hot, cold, wet, or windy it might be!

Date:

Astronomy

Feb. 03, 2013 Rise Set
Actual Time 7:47 AM CST 5:57 PM CST
Civil Twilight 7:18 AM CST 6:26 PM CST
Nautical Twilight 6:45 AM CST 6:59 PM CST
Astronomical Twilight 6:13 AM CST 7:32 PM CST
Moon 1:17 AM CST (2/3) 11:35 AM CST (2/3)
Length of Visible Light 11h 08m
Length of Day
10h 09m
Waning Gibbous, 48% of the Moon is Illuminated
Feb 3
Waning Gibbous
Feb 10
New
Feb 17
First Quarter
Feb 25
Full
Mar 4
Last Quarter

Hourly Weather History & Observations

Time (CST) Temp. Windchill Dew Point Humidity Pressure Visibility Wind Dir Wind Speed Gust Speed Precip Events Conditions
12:53 AM 32.0 °F 24.2 °F 23.0 °F 69% 30.25 in 10.0 mi NW 9.2 mph - N/A   Clear
1:53 AM 28.0 °F 24.2 °F 21.0 °F 75% 30.25 in 10.0 mi NNW 3.5 mph - N/A   Clear
2:53 AM 26.1 °F - 21.0 °F 81% 30.24 in 10.0 mi Calm Calm - N/A   Clear
3:53 AM 25.0 °F - 19.9 °F 81% 30.24 in 10.0 mi Calm Calm - N/A   Clear
4:53 AM 19.9 °F - 18.0 °F 92% 30.22 in 10.0 mi Calm Calm - N/A   Clear
5:53 AM 18.0 °F - 16.0 °F 92% 30.23 in 10.0 mi Calm Calm - N/A   Clear
6:53 AM 21.0 °F - 18.0 °F 88% 30.22 in 10.0 mi Calm Calm - N/A   Clear
7:53 AM 21.9 °F 11.7 °F 18.0 °F 85% 30.19 in 10.0 mi WSW 9.2 mph - N/A   Clear
8:53 AM 26.1 °F 18.4 °F 21.9 °F 84% 30.17 in 10.0 mi WSW 6.9 mph - N/A   Clear
9:53 AM 33.1 °F 24.4 °F 26.1 °F 75% 30.14 in 10.0 mi WSW 11.5 mph - N/A   Clear
10:53 AM 43.0 °F 36.0 °F 25.0 °F 49% 30.09 in 10.0 mi WSW 13.8 mph - N/A   Clear
11:53 AM 46.9 °F - 23.0 °F 39% 30.05 in 10.0 mi WSW 19.6 mph 26.5 mph N/A   Clear
12:53 PM 48.9 °F - 21.9 °F 35% 30.01 in 10.0 mi SW 17.3 mph 26.5 mph N/A   Clear
1:53 PM 51.1 °F - 21.0 °F 31% 29.96 in 10.0 mi SW 21.9 mph - N/A   Clear
2:53 PM 51.1 °F - 19.9 °F 29% 29.92 in 10.0 mi WSW 19.6 mph 27.6 mph N/A   Clear
3:53 PM 51.1 °F - 21.0 °F 31% 29.90 in 10.0 mi SW 13.8 mph 25.3 mph N/A   Clear
4:53 PM 50.0 °F - 21.9 °F 33% 29.88 in 10.0 mi SW 13.8 mph - N/A   Clear
5:53 PM 42.1 °F - 21.9 °F 45% 29.89 in 10.0 mi Calm Calm - N/A   Clear
6:53 PM 37.9 °F 34.4 °F 21.0 °F 51% 29.88 in 10.0 mi SW 4.6 mph - N/A   Clear
7:53 PM 32.0 °F 28.7 °F 19.9 °F 61% 29.90 in 10.0 mi West 3.5 mph - N/A   Clear
8:53 PM 30.9 °F - 19.9 °F 64% 29.88 in 10.0 mi Calm Calm - N/A   Clear
9:53 PM 36.0 °F - 21.0 °F 55% 29.85 in 10.0 mi Calm Calm - N/A   Clear
10:53 PM 34.0 °F - 21.0 °F 59% 29.85 in 10.0 mi Calm Calm - N/A   Clear
11:53 PM 39.0 °F 31.0 °F 21.9 °F 50% 29.86 in 10.0 mi NNW 13.8 mph - N/A   Clear